Lid_Strength_Index
10 13 15 13 13 12 13 14 15 14 12 14 13 13 11 10 12 12 11 8 7 6 5 8 9 9 9 9 9 7 7 8 7 8 8 8 9 9 9 8 8 8 9 9
14 14 11 11 12 13 13 14 14 13 12 12 14 13 11 11 11 11 11 9 7 7 10 10 10 10 9 9 9 8 8 8 8 8 10 9 9 9 9 9 9 9 9 10
15 13 12 11 12 13 14 14 14 14 12 12 14 14 13 12 12 11 12 10 6 6 9 10 10 10 9 9 10 9 9 9 9 10 9 9 9 9 9 10 10 9 10 10
15 13 13 13 14 13 16 11 11 12 14 17 13 18 16 13 12 11 10 11 10 8 8 9 10 10 10 10 11 11 11 10 10 9 8 9 9 10 11 11 10 10 10 10
16 15 15 15 14 13 14 11 12 13 16 17 16 17 17 14 13 12 11 10 11 9 8 9 9 10 10 12 11 11 11 10 10 10 9 9 11 10 10 11 11 11 11 11
16 14 14 14 12 12 12 14 15 15 16 19 16 16 16 15 13 12 11 10 11 11 9 9 10 10 12 11 12 11 10 11 10 10 10 10 10 11 11 12 12 12 11 11
14 13 12 12 14 13 14 16 20 21 20 19 15 16 14 13 12 12 12 12 12 11 11 11 11 11 11 11 12 10 11 11 10 10 10 10 10 11 12 12 12 12 12 13
16 17 13 11 13 15 15 15 19 21 21 19 15 18 16 11 10 11 11 12 11 12 11 11 11 11 10 10 10 11 11 11 10 10 11 10 10 11 12 12 12 13 13 13
16 16 11 10 10 11 13 16 14 17 16 19 17 15 13 10 11 12 12 12 12 12 12 11 10 11 10 10 10 10 10 10 9 10 10 11 11 12 12 12 12 12 13 12
12 16 11 10 10 10 11 10 16 15 20 21 19 18 17 13 12 11 12 13 12 11 11 11 10 10 9 10 9 9 9 10 10 10 10 11 11 12 12 12 12 13 13 13
10 13 13 10 12 13 12 14 14 14 16 20 20 18 11 12 11 11 10 11 11 11 11 11 11 10 10 9 9 10 10 10 11 11 11 12 12 12 12 12 12 12 12 13
9 12 16 14 10 9 11 12 12 17 19 17 18 18 10 10 10 9 9 8 8 9 9 9 10 9 9 9 10 10 10 11 11 11 11 12 12 12 12 12 12 12 12 12
9 14 17 15 13 12 13 12 12 13 14 17 19 17 9 11 10 9 9 8 7 8 8 8 10 10 10 10 9 9 10 10 11 11 12 12 13 12 13 13 13 13 12 13
8 12 14 17 15 13 14 13 12 13 18 17 16 14 12 10 11 10 9 8 7 7 8 8 9 11 10 9 9 9 10 11 11 12 12 13 13 12 12 12 13 13 13 14
9 13 13 12 11 11 12 12 12 14 13 16 14 14 12 10 10 9 8 7 7 7 8 8 8 10 10 9 9 10 10 11 11 12 13 13 13 13 13 13 13 14 14 14
9 13 12 14 12 12 13 12 12 12 12 12 12 13 10 9 7 8 8 7 7 7 6 7 7 8 10 10 10 10 11 11 11 12 13 12 13 14 14 14 15 15 15 15
12 13 14 16 13 13 16 13 12 13 11 11 14 12 10 10 9 9 8 7 7 6 6 6 6 7 9 9 9 10 11 11 11 12 12 13 13 14 15 15 15 16 16 16
12 13 13 16 15 20 13 10 10 11 10 10 10 10 9 8 8 7 7 7 7 6 6 5 6 7 8 9 9 10 10 11 11 12 13 13 14 15 15 16 16 17 17 17
9 11 15 17 17 14 12 11 11 12 12 9 9 9 9 7 7 8 6 6 7 7 7 7 6 7 9 9 9 10 11 12 12 13 13 14 14 15 16 17 17 17 17 17
9 9 14 15 18 21 14 11 8 9 15 8 8 8 9 9 12 11 8 8 9 9 9 9 9 9 9 10 10 11 11 12 13 13 13 14 14 15 16 17 17 17 17 17
14 14 15 15 17 14 11 9 8 15 14 8 8 8 8 10 9 8 8 9 9 9 10 9 9 10 10 9 9 10 11 12 12 13 13 14 15 16 16 17 17 17 17 17
14 15 16 14 17 18 9 9 11 10 9 8 8 7 8 7 8 8 8 9 9 10 9 9 9 10 9 9 9 10 11 11 11 13 14 14 15 16 16 17 17 17 18 18
14 12 14 14 14 9 8 9 7 7 7 7 7 6 6 7 7 8 9 9 10 9 8 8 9 9 8 8 9 10 10 11 12 13 14 15 15 15 16 17 18 18 18 19
11 10 12 12 11 10 8 8 8 8 8 6 6 6 6 6 7 8 8 9 8 8 9 8 8 9 9 9 9 10 11 11 13 14 14 14 15 16 16 16 17 18 20 20
11 11 12 12 11 10 10 9 9 8 6 7 6 5 5 5 6 7 9 9 9 10 9 9 9 9 9 9 10 10 11 12 13 14 14 14 14 16 16 16 18 19 24 20
11 11 13 14 10 10 11 9 7 8 8 7 7 7 6 5 5 7 9 9 10 11 10 10 10 10 10 10 10 11 11 12 13 13 14 15 15 16 16 18 21 15 18 14